Wind_Speed
37 34 33 35 39 41 43 41 44 58 66 64 61 58 55 55 55 55 53 51 50 48 46 44 43 43 42 41 40 40 40 39 36 34 32 31 30 29 28 27 25 25 25 25 23 22 21 20 19 17 16 17 17 17 17 17 17 18 18 18 17 17 17 16 17 17 17 18 18 18 19 19 19 19 20 20 21 21 22 23 24 24 25 25 26 27
40 35 29 31 37 40 41 40 46 61 67 64 64 60 56 55 55 54 52 50 48 48 46 45 45 44 44 43 42 42 41 38 36 35 33 32 31 30 29 27 27 27 26 25 24 22 21 20 20 18 17 17 18 19 19 19 19 19 19 19 18 18 18 18 19 19 19 19 19 19 20 20 21 22 23 23 24 24 24 25 26 26 27 27 28 29
45 40 33 32 35 39 42 42 47 63 69 65 65 63 59 57 56 54 52 50 50 49 47 47 48 47 46 46 45 44 42 38 36 35 34 33 33 31 30 29 28 28 26 25 25 24 23 22 21 20 19 19 20 21 21 21 20 20 19 20 20 20 20 20 20 20 20 20 20 21 21 21 22 23 25 26 26 27 27 27 27 28 29 29 30 30
45 44 41 37 35 36 41 43 47 61 70 67 66 65 61 59 57 54 52 51 51 51 50 49 50 49 48 48 47 44 41 38 37 36 35 34 34 32 31 30 30 28 27 26 26 25 24 24 22 21 21 21 21 22 22 22 22 21 21 22 22 22 22 22 21 21 21 21 21 22 23 23 23 24 26 28 28 28 28 29 29 29 30 30 31 32
42 43 43 42 39 35 36 42 46 56 68 70 67 66 63 59 56 53 51 51 51 52 51 50 51 51 50 49 47 43 40 39 38 37 36 35 34 33 32 31 30 29 27 27 26 26 25 24 24 23 23 23 22 22 23 23 24 24 24 23 24 24 23 23 23 22 22 22 22 23 24 24 25 26 28 29 29 29 30 30 31 31 31 32 32 33
40 42 42 41 42 38 34 38 44 53 65 71 68 65 64 60 56 52 50 51 52 52 51 51 53 52 50 49 47 43 41 40 39 38 37 36 35 35 33 31 30 29 28 28 27 27 26 25 25 24 23 23 23 24 25 25 26 25 25 25 25 25 25 25 24 24 24 23 23 24 25 25 26 28 29 29 29 29 31 31 32 32 33 33 34 35
39 40 39 38 40 39 35 35 42 52 63 71 68 65 64 59 53 50 50 50 52 52 51 51 54 53 50 49 46 44 44 42 40 39 38 37 37 35 33 31 31 30 29 29 29 28 27 26 26 25 25 25 25 26 27 26 26 26 27 27 27 27 27 26 26 26 25 25 25 26 26 26 28 29 29 29 30 30 31 32 33 34 34 35 36 37
39 38 37 36 38 38 36 34 39 51 63 70 69 65 62 57 51 49 49 50 52 52 51 51 54 54 51 49 47 46 45 43 41 40 38 37 37 35 34 33 32 31 31 31 30 29 28 27 27 27 27 26 27 27 27 27 28 28 29 29 29 29 28 28 28 28 28 28 28 28 28 28 29 30 30 31 31 32 33 34 35 36 36 37 38 39
38 37 36 37 37 37 35 34 39 51 63 70 69 65 61 55 52 50 50 51 53 54 54 53 54 56 53 49 48 48 47 45 42 40 38 37 37 36 35 34 33 32 32 31 31 30 29 29 29 28 28 28 28 28 28 29 29 30 30 30 30 30 30 30 30 30 30 30 30 30 30 31 31 32 32 33 34 35 36 37 37 38 39 40 41 41
37 36 35 36 37 35 35 36 41 51 62 69 68 64 58 55 54 52 51 52 54 57 57 55 55 57 55 50 49 50 48 45 42 39 38 38 39 38 36 34 34 33 32 32 32 31 30 29 29 29 29 29 29 29 29 30 30 30 31 31 31 31 32 32 32 32 32 32 33 33 33 33 33 34 35 36 36 37 38 39 40 40 41 42 43 44
35 35 35 36 36 36 36 38 43 51 63 68 67 63 57 55 54 52 51 52 55 59 59 56 55 57 57 53 50 51 48 44 41 41 41 40 39 37 35 35 34 34 33 33 33 32 30 30 29 29 29 29 29 30 30 30 31 31 32 32 33 33 33 33 34 34 34 35 35 35 35 36 36 37 38 38 39 40 41 42 42 43 44 45 45 45
35 35 36 37 37 37 37 39 44 53 63 68 67 64 58 55 54 52 52 53 57 61 59 57 57 58 59 55 51 51 48 44 43 42 42 41 39 37 36 35 34 34 34 34 33 32 31 30 30 29 29 29 30 30 31 31 32 32 33 33 34 34 34 35 35 36 36 37 37 37 38 38 39 39 40 41 41 42 43 44 45 45 46 46 46 47
36 36 37 37 38 38 38 41 46 52 61 67 69 66 60 56 55 53 53 55 58 61 60 58 58 60 62 57 52 51 48 45 43 42 42 41 38 37 36 35 35 35 35 35 33 32 32 31 30 29 29 29 30 30 31 32 32 33 33 34 34 35 35 36 36 37 37 38 39 39 40 40 41 42 42 43 44 44 45 46 46 47 47 48 48 48
36 36 37 39 39 39 40 42 45 49 57 65 69 67 62 59 58 55 54 55 58 60 59 59 59 61 62 57 53 52 48 45 43 42 41 40 38 37 37 36 35 35 35 35 34 33 33 31 30 29 29 29 29 30 30 31 32 32 33 34 34 35 36 36 36 37 38 39 39 40 41 42 43 44 44 45 46 46 47 47 48 49 49 50 50 50
34 34 35 37 39 40 41 43 45 50 57 64 68 65 60 58 58 55 53 54 56 57 56 57 59 62 62 57 52 51 49 46 44 42 41 40 39 38 37 36 36 35 35 35 34 34 33 32 31 30 29 29 29 29 29 30 31 31 32 33 34 34 35 36 36 37 38 39 40 41 42 43 44 45 45 46 47 47 48 49 49 50 50 50 50 50
34 33 33 35 37 38 41 43 47 53 59 64 66 63 59 58 56 54 52 52 53 54 55 57 59 61 60 56 51 49 49 47 44 43 42 41 40 39 38 37 36 36 35 35 34 34 33 32 31 31 30 30 29 29 29 29 30 30 31 31 32 33 34 35 36 37 38 39 40 41 42 43 44 45 46 46 47 48 49 49 50 50 50 50 50 50
32 32 33 34 36 38 41 44 48 53 59 63 66 66 63 58 55 53 52 52 52 54 57 59 59 59 57 56 52 49 49 48 46 45 44 43 41 39 39 38 37 36 35 35 35 34 34 33 32 31 31 30 30 30 30 30 30 30 30 30 31 32 33 34 35 36 37 38 40 41 42 43 44 45 46 46 47 48 48 49 49 50 50 50 49 49
28 30 31 32 34 37 39 44 48 53 58 62 65 66 62 54 52 53 53 52 52 55 58 59 59 58 57 56 54 50 48 47 46 46 45 44 42 40 39 38 38 37 36 36 35 35 35 34 33 32 31 31 31 31 32 32 31 31 31 31 31 32 33 34 36 37 38 39 40 41 42 43 44 45 46 46 47 48 48 49 49 49 49 48 48 48
28 29 31 31 33 35 38 43 47 52 58 62 64 64 59 53 54 55 54 55 55 56 58 58 58 58 57 56 53 49 48 46 46 46 45 44 43 42 41 39 39 39 38 37 37 36 36 35 34 33 32 32 32 32 32 32 32 32 31 32 32 33 34 35 37 38 39 40 41 42 43 43 44 45 45 46 46 47 47 47 47 46 46 47 47 48
29 30 32 32 32 34 38 42 44 48 55 61 63 63 59 56 55 54 54 56 55 55 57 58 59 58 57 54 51 48 47 46 45 45 44 44 44 44 43 41 40 40 40 39 39 38 37 36 35 34 34 34 33 33 33 33 33 32 32 33 34 35 36 37 38 39 40 41 41 42 42 43 44 44 45 45 45 45 45 45 45 45 46 47 48 48
31 31 33 33 33 36 39 41 42 46 53 59 62 63 61 59 57 54 53 55 55 55 57 58 59 59 56 52 49 47 46 45 44 44 44 44 45 45 45 43 42 41 41 41 40 39 39 38 37 36 36 35 35 35 34 34 34 33 34 34 35 36 37 37 38 39 40 40 41 41 42 42 43 43 43 43 43 43 43 44 45 46 47 48 49 50
33 33 35 36 36 36 37 39 42 47 52 56 60 62 61 57 55 53 53 55 55 56 57 57 59 59 55 51 48 46 45 44 44 45 44 45 45 45 46 45 44 43 42 41 41 41 40 40 40 39 38 38 37 36 35 35 34 35 35 35 36 37 38 38 39 40 40 41 42 42 43 43 43 43 43 42 42 42 43 45 46 47 48 49 50 51
32 33 35 37 37 37 38 40 43 46 49 54 58 60 60 58 56 55 55 56 55 55 55 55 57 58 55 51 49 47 45 44 44 44 44 43 44 44 45 46 45 44 42 42 41 41 41 42 42 41 40 39 38 37 36 36 36 36 37 38 38 39 39 40 40 41 41 42 43 44 44 45 44 43 43 43 43 44 45 47 48 49 49 50 51 52
32 34 36 38 39 39 40 41 44 46 48 52 55 59 61 62 60 58 56 55 53 53 53 52 57 60 54 50 50 47 45 43 43 43 42 42 42 42 44 44 44 44 43 42 42 42 42 42 42 41 40 39 38 37 37 37 37 38 38 39 40 40 40 41 41 42 43 44 44 45 45 45 44 44 44 44 45 46 47 48 49 50 51 52 53 54
34 38 39 40 42 43 43 43 44 45 46 49 52 57 61 61 59 57 55 54 54 56 55 54 61 63 54 49 49 47 44 43 41 41 40 40 40 40 41 42 42 43 43 43 44 43 43 42 42 41 39 38 38 37 37 38 38 39 40 41 41 41 42 42 43 44 44 44 45 45 44 44 45 45 45 46 47 48 49 50 51 52 53 54 55 56
36 40 40 41 43 43 41 38 38 40 44 48 50 54 57 59 58 56 55 55 56 58 57 57 64 63 53 48 48 45 44 43 41 40 38 37 38 38 39 40 40 42 43 44 45 45 44 43 41 40 39 38 38 38 38 39 40 41 42 42 42 42 43 43 44 45 45 45 45 45 45 45 45 46 47 48 48 49 51 52 53 54 55 56 58 59
39 43 42 42 42 40 37 37 37 40 43 46 47 49 53 56 56 55 55 56 56 57 57 58 61 60 53 48 47 43 42 42 41 39 37 36 37 38 38 39 41 42 44 45 45 45 44 43 41 40 39 38 39 39 40 41 42 43 43 43 43 44 45 45 46 46 47 46 46 46 46 47 47 48 49 50 51 52 53 55 56 57 58 60 61 62
42 44 44 43 42 41 41 42 42 42 43 44 46 48 50 52 54 54 55 56 55 56 58 58 58 60 57 50 45 42 41 41 41 40 39 39 39 40 41 42 43 44 44 45 45 45 44 43 42 41 41 41 42 43 43 43 43 43 43 44 45 45 46 47 47 48 48 47 47 48 48 48 49 50 51 52 53 55 56 58 59 60 61 62 63 64
41 42 42 43 43 44 45 46 46 45 45 46 47 48 49 51 53 54 54 55 54 56 59 57 55 59 59 50 45 44 44 44 43 42 43 44 44 44 45 45 45 45 45 45 45 45 44 44 44 44 44 45 45 45 44 44 44 44 45 45 46 47 47 48 48 48 48 48 48 49 49 50 51 52 53 54 56 57 58 60 61 61 62 63 64 64
40 40 41 42 43 45 46 47 47 47 47 48 49 49 50 51 52 54 55 55 55 57 58 56 55 58 58 52 49 48 48 49 48 47 47 47 46 47 47 47 46 46 46 45 45 45 45 45 45 46 46 46 46 46 46 46 47 47 47 48 48 49 49 50 50 50 49 48 49 50 51 52 53 54 56 57 58 59 60 61 62 63 63 63 64 64
40 40 41 41 41 44 46 46 48 48 48 48 49 50 50 51 52 54 54 55 57 58 57 57 59 59 57 55 53 52 52 53 52 50 49 48 48 49 49 49 48 48 47 46 46 46 46 46 47 47 47 47 47 48 49 49 49 49 50 50 50 51 51 52 52 51 50 50 52 53 54 55 56 57 58 59 60 61 62 63 63 63 64 63 63 63
38 40 40 39 41 43 42 43 46 47 48 50 51 49 50 50 51 52 52 53 56 56 56 58 59 55 53 53 55 55 56 55 52 51 51 50 50 50 51 51 51 51 49 47 47 47 47 48 48 48 49 49 50 50 51 50 50 50 51 51 52 52 52 52 53 52 52 53 54 56 57 58 59 59 60 61 62 63 64 64 64 64 64 64 64 64
37 39 38 39 40 41 42 43 44 45 50 51 47 44 46 48 49 51 53 53 53 54 55 56 53 49 49 51 52 55 57 56 53 52 51 50 50 51 51 51 51 51 51 50 50 50 50 50 50 50 51 51 51 52 51 50 50 51 52 52 52 53 53 54 54 55 55 56 57 58 59 60 61 61 62 63 64 64 64 64 64 64 64 64 65 64
38 39 39 40 39 40 42 42 44 49 52 47 40 39 44 47 49 52 53 51 52 53 53 52 49 48 49 50 50 52 54 55 54 53 51 51 51 51 51 51 51 51 51 51 51 52 52 52 51 51 51 51 51 51 51 51 51 53 53 53 54 54 55 56 57 57 58 59 60 60 61 62 62 63 64 64 64 64 64 64 64 65 65 65 64 64
37 39 41 42 41 42 42 42 46 51 48 42 41 41 43 45 47 49 50 51 51 52 52 51 50 49 49 48 48 50 51 52 53 53 53 52 52 51 52 51 51 51 51 51 51 51 51 51 51 51 51 51 51 52 52 53 54 55 55 55 56 57 57 58 58 59 60 60 61 62 63 63 63 63 64 64 64 64 64 65 65 65 65 64 63 62
38 39 41 42 43 44 45 46 49 48 42 41 43 43 42 44 45 47 49 49 50 52 53 51 50 49 49 48 48 48 50 51 53 53 53 53 53 52 52 51 51 51 51 51 51 51 52 52 52 52 53 53 53 54 54 55 56 57 57 57 58 58 59 59 60 61 61 62 62 63 63 63 63 63 63 64 64 64 64 64 64 64 63 62 62 62
42 42 42 44 45 45 46 48 48 47 45 44 42 40 41 43 44 47 49 48 47 50 51 49 48 48 49 49 48 49 51 52 53 53 53 53 53 52 52 51 51 51 51 52 53 53 54 54 54 55 55 55 55 56 56 57 58 58 59 59 60 60 60 61 61 62 62 62 62 62 62 63 63 63 63 64 64 64 63 63 63 62 62 62 62 62
46 46 46 47 47 47 48 49 49 50 49 44 41 40 41 43 43 47 52 50 46 46 48 48 47 48 49 49 50 51 52 54 54 53 51 52 53 53 52 52 52 53 53 54 55 55 55 56 56 57 57 57 58 58 58 59 59 60 61 61 62 62 62 62 62 62 62 62 62 62 62 62 63 63 63 63 63 62 62 62 62 61 61 62 63 64
50 50 49 50 50 50 51 51 53 52 47 43 43 41 42 44 43 46 52 49 42 43 47 48 47 47 49 50 52 53 55 57 56 52 51 52 54 54 54 54 54 55 56 56 57 57 57 58 58 59 59 59 60 60 61 61 62 62 63 63 63 63 63 62 62 62 62 62 62 62 62 62 62 62 62 62 62 61 61 61 61 61 62 63 65 67
53 52 53 54 54 54 54 54 55 52 45 43 45 43 43 45 45 48 51 45 41 44 46 46 49 51 51 51 53 54 56 56 55 52 52 54 54 55 56 57 57 58 58 59 59 59 60 60 60 61 61 62 62 63 63 64 64 64 63 63 63 62 62 62 62 62 61 61 61 61 61 61 61 61 61 61 61 61 61 61 62 63 64 66 68 70
54 53 54 54 54 56 56 56 57 53 45 45 47 45 45 47 48 52 50 44 44 46 41 41 49 53 54 55 56 56 56 55 55 55 55 56 57 57 58 58 59 59 60 60 61 61 61 62 62 63 63 64 64 65 65 65 64 63 63 62 62 62 62 61 61 61 60 60 60 61 61 61 61 61 60 60 60 60 61 62 64 65 67 70 71 73
55 55 55 55 55 56 56 57 59 52 43 45 49 49 51 53 53 52 47 44 47 47 41 41 45 47 51 55 57 58 59 59 59 59 59 59 59 60 60 60 60 61 61 61 62 62 63 64 64 65 65 65 65 65 65 65 64 63 63 62 62 61 61 60 60 60 60 60 60 61 61 60 60 59 59 60 61 62 63 65 67 69 71 72 73 73
55 55 56 56 56 57 57 60 58 47 40 44 49 50 54 54 51 47 45 44 45 45 44 45 43 43 46 49 50 54 57 58 60 62 63 64 64 64 64 64 64 64 64 65 65 66 66 67 67 67 67 66 66 65 65 64 63 62 61 61 60 60 60 60 60 60 60 60 60 60 59 59 59 59 60 61 63 65 67 68 70 72 73 73 74 74
57 57 58 58 58 59 60 61 56 48 46 49 49 49 51 51 47 46 46 46 45 45 46 48 47 46 46 45 47 49 50 52 55 57 60 63 65 66 68 68 69 69 69 68 68 68 68 69 68 68 67 66 66 65 64 63 61 61 60 60 60 60 60 60 60 60 60 60 59 59 58 59 60 61 63 65 67 68 70 71 72 73 73 74 75 75
59 58 57 58 58 58 59 58 54 52 53 55 53 52 52 52 51 50 49 48 48 47 47 48 50 50 48 48 48 48 48 49 50 51 54 57 58 61 63 64 66 67 67 67 67 66 65 65 65 65 64 64 63 62 62 61 61 61 61 61 60 60 60 60 60 60 59 59 59 59 60 61 63 65 67 69 70 71 72 72 73 73 74 75 76 76
57 56 56 56 57 58 58 57 55 55 55 56 57 56 54 53 54 53 52 52 51 50 49 49 50 51 51 51 51 50 51 51 51 52 53 53 54 55 56 57 58 59 60 61 61 60 60 59 59 60 60 60 60 60 60 60 60 60 60 60 60 60 60 59 59 59 59 59 60 62 63 65 67 69 70 71 72 72 72 73 73 74 75 76 76 76
56 55 55 55 56 57 58 56 54 54 54 54 56 56 54 53 53 54 55 55 54 53 52 52 51 51 52 52 51 51 52 52 53 53 53 52 53 54 54 54 55 55 56 57 57 57 57 57 57 57 57 58 59 59 59 60 59 60 60 59 59 59 58 58 58 59 60 62 63 65 67 68 69 70 71 71 71 72 72 73 74 75 75 75 75 75
54 53 53 53 54 56 56 54 52 52 52 53 53 54 54 54 54 55 56 56 55 55 54 53 53 53 53 53 53 52 51 52 52 52 52 53 53 53 53 54 55 55 56 57 57 57 58 58 58 58 58 58 58 58 59 59 58 58 58 57 57 57 58 59 60 62 63 65 66 67 68 69 70 70 70 71 71 72 73 74 75 75 75 75 75 76
53 53 53 52 53 54 55 54 54 54 54 54 53 53 54 55 56 56 56 56 56 56 55 55 54 55 55 55 55 54 53 53 52 52 53 53 53 53 53 54 54 55 56 56 57 58 58 58 59 59 58 58 57 57 56 56 55 56 56 56 58 59 60 62 63 64 65 66 67 68 68 69 69 69 70 71 72 73 73 74 74 75 75 75 76 76
54 55 54 53 54 55 54 53 53 54 53 53 53 53 54 56 56 57 57 57 57 57 57 57 56 56 55 55 55 54 54 54 54 54 54 53 53 54 54 54 55 55 56 56 57 58 58 59 59 58 57 56 55 54 54 55 55 57 58 59 61 62 63 64 64 65 66 66 67 67 68 68 69 70 71 71 72 73 74 74 74 75 75 76 77 77
54 55 54 54 54 53 51 50 51 51 51 51 52 53 55 56 57 57 57 57 57 57 57 57 57 56 55 53 53 53 54 54 55 55 54 55 55 55 55 55 55 55 55 56 56 57 57 57 56 55 55 54 55 56 56 57 58 59 60 62 62 63 63 64 64 65 66 66 67 67 68 69 70 70 71 72 73 74 74 74 74 75 76 77 78 79
Wind_Direction
232 233 232 229 223 221 218 218 220 214 207 205 206 209 211 212 213 213 214 215 216 217 217 216 217 218 219 220 221 222 222 221 223 224 224 226 227 227 226 225 226 227 229 231 231 230 229 232 237 235 231 232 232 231 232 233 234 237 242 244 245 248 250 251 251 252 255 258 262 267 272 274 276 278 280 281 283 286 289 292 295 299 302 303 304 307
230 231 234 233 226 224 221 220 220 212 207 206 207 208 210 212 214 214 214 216 217 218 218 218 217 218 220 220 220 222 223 222 223 225 225 225 227 227 227 228 228 228 230 233 234 234 234 234 236 238 235 232 232 232 233 234 235 237 240 245 247 248 250 251 251 252 254 258 261 265 269 272 276 280 283 284 285 286 289 292 295 298 299 301 303 305
234 233 236 236 228 226 224 223 220 212 207 207 208 209 209 211 214 213 213 215 217 218 218 219 219 218 219 221 221 222 223 222 222 225 226 225 227 227 228 229 230 231 231 233 235 236 236 236 236 238 238 234 233 235 236 237 239 240 240 244 247 248 249 251 253 256 257 260 264 267 269 272 276 280 282 284 286 288 290 292 294 296 298 299 301 303
237 236 236 236 232 229 226 225 222 213 207 207 209 209 209 212 214 213 213 214 216 218 218 219 220 218 219 222 223 222 222 222 223 225 226 226 226 227 228 229 231 232 232 233 234 235 236 237 236 235 237 237 236 237 239 240 241 242 242 243 246 248 250 253 255 258 261 263 267 270 272 275 277 278 279 281 284 287 289 291 292 294 296 297 298 299
236 237 236 237 239 238 232 228 225 216 209 208 209 210 210 213 215 214 213 214 216 218 219 220 221 220 219 223 224 223 222 223 224 225 226 228 227 228 229 230 232 233 233 235 236 237 237 238 238 236 236 237 239 239 240 241 242 244 246 246 247 250 252 254 256 259 262 265 267 270 273 275 276 276 277 280 283 286 287 289 291 292 294 295 296 296
235 236 237 238 240 241 240 234 228 221 212 209 209 210 211 213 215 214 213 214 216 218 219 221 223 221 220 223 225 224 224 223 224 225 226 229 229 230 230 230 233 234 234 236 237 238 239 240 241 239 238 238 239 240 240 241 243 246 248 249 250 251 253 255 258 260 263 265 267 269 271 273 275 275 277 280 282 284 285 287 289 290 291 293 294 295
235 237 237 238 240 240 242 240 231 223 214 209 209 211 213 214 215 215 214 215 217 219 220 222 225 223 220 223 225 224 226 224 223 225 225 228 230 231 232 231 232 234 235 236 237 238 239 240 242 242 241 239 238 239 241 243 244 246 249 251 252 253 254 257 260 262 264 265 267 269 271 273 275 276 278 280 282 282 284 285 286 288 289 291 293 294
235 236 236 237 239 239 240 243 237 226 217 209 208 212 213 214 215 215 214 215 217 219 220 223 226 226 221 222 224 224 226 225 224 225 226 229 232 233 233 233 232 234 236 237 238 239 240 240 241 242 241 241 240 241 242 244 245 247 248 250 253 254 256 259 261 263 264 266 268 269 271 272 273 275 277 279 280 281 282 283 285 287 289 290 292 293
235 235 233 234 237 238 239 242 238 229 219 210 208 211 213 213 214 214 213 214 216 218 220 221 225 228 223 219 224 226 225 226 225 225 226 228 233 234 234 234 234 235 237 239 239 239 240 241 241 242 242 242 243 243 244 245 247 249 250 252 254 256 258 259 261 263 265 267 269 270 271 272 273 275 277 278 279 280 282 283 285 287 289 291 292 294
234 233 232 233 236 237 236 238 236 229 219 210 208 211 213 213 214 214 214 214 216 218 220 221 224 229 225 218 222 227 226 226 227 227 228 227 230 234 235 236 236 236 237 239 240 241 240 241 242 243 244 244 244 244 245 246 248 250 252 254 256 257 259 260 262 263 266 267 269 271 272 274 276 277 277 278 280 282 283 284 286 288 290 291 292 293
232 231 231 232 234 235 234 235 234 228 219 210 208 210 212 213 214 215 215 215 217 218 219 221 224 229 228 220 219 226 227 226 227 227 229 229 229 231 235 237 238 238 238 239 240 242 242 242 242 243 245 246 246 246 247 248 249 250 252 254 256 258 260 261 263 264 266 268 270 272 274 276 277 277 278 280 281 283 284 285 287 288 289 290 290 291
233 231 231 231 231 232 234 234 232 226 219 212 209 211 212 213 215 217 216 216 218 219 218 221 224 228 229 223 219 224 227 226 226 227 229 231 230 230 233 236 239 241 241 241 242 242 243 243 243 243 245 246 247 248 248 249 250 251 252 254 257 259 261 262 264 266 267 269 271 273 275 276 277 278 279 280 281 282 284 285 286 287 288 288 290 291
233 231 231 232 231 231 232 232 231 227 222 215 210 211 212 213 215 218 218 217 217 219 219 221 225 227 229 226 221 223 227 227 227 227 229 232 233 233 234 235 238 241 243 244 244 244 244 245 244 244 245 245 246 247 248 249 251 252 253 255 257 259 261 263 265 267 269 270 272 273 275 276 277 278 279 280 281 282 283 284 285 286 287 289 290 291
236 233 232 232 232 231 231 231 232 230 225 219 213 212 213 214 215 218 219 218 217 219 220 221 225 227 229 227 223 224 227 228 228 228 229 231 234 236 237 237 238 240 243 244 246 246 247 247 247 246 246 246 246 247 248 250 251 253 254 256 258 259 262 264 266 267 269 271 272 273 274 275 276 277 278 279 280 281 283 284 285 286 287 288 289 291
237 237 237 237 236 234 232 230 229 228 224 219 214 213 214 216 217 219 221 222 220 221 223 224 226 227 229 229 226 226 229 229 228 229 229 230 233 235 238 240 240 241 243 244 246 247 248 249 248 248 248 248 248 248 250 251 252 253 255 256 258 260 263 264 266 267 269 270 272 273 274 275 276 277 278 279 280 281 282 282 283 284 286 287 288 290
234 235 235 238 239 238 237 232 227 223 220 217 215 214 215 217 218 220 223 224 223 224 225 226 227 227 229 231 229 228 231 231 229 228 229 230 232 235 238 241 243 243 244 245 245 246 247 248 249 249 250 251 251 251 252 252 253 254 256 258 259 261 263 265 267 268 269 270 271 272 273 274 275 276 277 278 279 280 280 282 283 284 285 287 288 288
239 239 236 236 237 238 238 235 228 223 220 219 218 216 216 218 219 221 223 224 224 226 226 226 227 228 230 232 231 229 230 232 231 230 229 230 232 235 238 242 244 245 246 246 246 246 247 247 248 250 252 253 253 254 255 255 257 258 259 261 263 265 267 269 270 271 272 273 273 273 274 275 275 276 277 277 278 279 280 282 283 284 285 286 286 287
239 243 242 240 241 240 239 235 230 224 221 219 219 218 218 218 220 221 224 225 226 226 226 226 227 228 230 232 231 230 230 232 233 233 232 232 234 236 238 241 244 246 246 246 246 247 247 247 248 250 251 252 253 255 256 257 259 261 263 265 267 269 270 272 273 274 274 275 275 275 275 275 275 276 277 277 278 279 280 281 282 283 284 284 285 285
234 239 240 239 240 242 241 237 233 227 222 220 220 220 219 219 220 222 224 226 227 228 227 227 227 228 230 231 232 233 233 233 234 235 235 236 237 239 239 240 242 245 247 247 247 247 247 247 249 251 251 252 253 255 256 258 260 262 264 266 268 270 271 272 273 274 274 274 274 274 274 275 275 276 276 277 278 279 280 281 282 283 283 283 283 284
231 235 238 238 238 239 238 238 237 234 228 223 221 220 220 221 222 223 225 228 229 230 230 229 229 229 230 232 234 236 236 235 236 236 238 239 240 241 243 243 243 245 247 248 249 248 248 248 250 251 252 253 254 255 257 259 262 264 266 267 268 270 270 271 271 272 272 273 273 274 274 274 275 275 276 277 278 279 280 281 281 281 281 282 283 284
231 232 236 237 236 237 238 239 239 236 230 227 224 222 221 222 222 223 225 227 230 232 232 232 231 230 230 232 234 236 238 238 238 239 239 240 241 242 244 246 246 246 246 248 249 250 250 250 251 252 252 253 254 255 258 260 263 265 267 268 269 270 270 271 272 272 273 274 275 275 275 276 276 276 277 277 278 279 279 279 279 279 280 282 283 285
230 230 232 234 235 237 239 241 239 235 231 228 226 224 224 224 224 225 225 227 229 232 233 234 234 232 232 233 234 237 239 239 240 240 241 241 242 243 245 246 248 249 248 248 249 250 251 252 252 253 253 253 254 256 259 262 265 267 269 270 271 271 272 273 273 274 275 275 276 276 277 277 278 278 278 278 278 278 278 278 278 280 282 283 285 287
236 234 234 234 234 235 237 238 238 236 234 230 227 226 226 226 227 227 227 227 230 232 234 237 237 234 233 234 234 236 238 239 240 241 242 243 243 244 245 247 249 251 251 251 251 251 252 252 253 253 253 254 255 257 260 263 265 268 269 271 271 272 272 273 273 273 274 274 275 275 276 276 277 277 278 278 278 278 278 279 280 282 284 285 287 288
238 236 236 235 235 234 235 236 236 236 235 233 231 230 228 228 228 229 229 228 230 233 234 237 238 234 233 235 236 236 238 239 240 241 242 243 243 244 245 246 248 251 252 253 254 253 253 252 252 252 253 254 256 259 261 263 264 266 267 268 269 269 270 270 271 271 272 273 273 273 273 274 274 275 276 277 277 278 279 281 282 284 285 287 288 289
238 235 235 234 234 233 233 234 236 238 238 237 235 232 231 230 230 230 231 230 231 231 232 235 236 233 233 236 236 237 238 238 239 241 242 243 243 244 245 246 247 249 251 253 253 254 253 252 252 252 253 256 258 260 261 262 263 264 265 266 266 267 268 269 270 271 271 271 271 271 272 272 273 274 275 276 278 279 281 282 284 285 286 288 289 290
241 239 238 236 237 238 239 243 247 248 244 241 238 235 232 231 231 232 232 233 233 232 232 235 235 234 233 236 238 239 239 239 239 241 243 244 245 245 245 246 247 247 249 250 251 252 252 253 253 255 256 258 260 261 262 262 263 264 265 265 267 268 269 270 270 271 271 271 271 272 272 273 274 275 277 278 280 282 283 284 285 286 288 289 290 291
237 238 237 238 241 244 248 253 255 252 248 246 245 242 238 235 235 235 235 236 236 236 236 236 237 237 236 237 240 242 242 243 242 242 244 246 247 247 247 247 247 247 248 249 250 251 253 254 256 258 259 260 261 262 262 263 263 264 264 266 267 268 269 270 270 270 270 271 272 273 274 275 277 278 279 281 283 284 284 286 287 288 290 291 291 292
235 237 238 238 239 242 243 244 245 244 244 244 244 243 241 239 238 238 239 240 240 241 241 239 239 240 239 239 242 244 245 246 245 244 245 247 248 248 247 247 247 247 248 249 251 252 253 256 257 259 261 261 262 262 263 263 264 264 265 266 267 268 268 268 268 269 270 271 272 273 275 276 278 280 281 283 284 285 286 287 289 290 290 291 292 293
235 237 239 241 242 241 241 241 240 240 240 240 239 239 239 238 238 239 240 241 242 243 244 242 241 242 241 241 243 244 245 245 245 243 243 244 246 247 247 247 248 248 249 249 251 252 254 256 257 258 260 261 261 262 262 263 264 264 265 266 267 267 267 268 268 269 270 272 273 275 277 278 280 281 283 284 285 286 287 288 289 290 290 291 291 292
234 235 238 241 242 242 241 241 241 241 240 240 239 239 238 238 238 239 240 241 241 244 245 244 243 241 240 240 240 241 242 243 243 242 241 242 244 246 248 249 249 248 249 249 251 252 253 254 255 256 258 258 259 260 261 262 264 265 266 266 267 268 268 269 269 270 272 274 276 277 278 280 281 282 284 285 286 287 288 288 289 290 290 291 291 292
235 236 237 239 241 242 242 242 242 242 242 241 240 239 239 239 240 241 243 243 243 244 245 245 244 243 242 241 241 241 243 244 243 243 243 243 244 246 249 251 251 250 250 250 251 252 253 253 253 254 255 256 257 259 260 262 263 264 265 266 267 268 268 269 270 272 274 276 277 278 279 281 282 283 285 286 286 287 288 288 289 290 290 291 292 293
238 240 241 241 242 244 244 245 246 246 245 243 241 241 243 244 246 247 248 247 245 245 246 246 247 249 247 244 242 243 243 244 244 244 245 245 245 247 248 249 250 250 250 250 250 250 250 251 251 252 254 255 257 258 260 261 262 263 265 266 267 268 269 270 271 273 275 277 278 279 280 282 283 284 285 286 287 287 288 289 290 290 291 292 293 294
239 242 244 245 246 247 247 247 248 248 247 245 244 246 249 250 250 249 248 247 247 248 248 249 252 255 250 244 243 244 244 244 244 245 246 246 245 245 246 246 247 248 248 248 249 250 251 251 252 254 255 256 258 259 260 261 262 263 264 266 267 269 270 272 273 275 276 277 279 280 281 282 284 285 285 286 287 288 288 289 290 291 292 292 293 294
236 239 242 243 245 246 247 247 248 248 247 247 249 250 250 249 249 249 249 250 250 250 251 253 255 254 249 246 245 245 245 245 245 244 244 245 245 245 245 246 247 248 248 249 250 252 253 254 255 256 257 258 260 261 262 262 263 264 265 267 268 270 272 274 275 276 277 278 279 280 282 283 284 285 286 286 287 287 288 289 290 291 292 292 293 294
236 239 241 243 243 244 244 245 246 248 248 249 250 249 250 250 249 249 251 251 250 250 251 252 252 250 249 248 246 245 244 245 244 244 244 245 246 246 247 247 249 250 251 252 252 253 255 256 257 258 259 261 262 263 265 266 266 267 269 270 271 272 274 275 277 277 278 279 280 281 283 284 284 285 285 286 287 287 288 289 290 291 292 292 293 293
241 242 244 246 246 246 246 245 246 249 250 250 249 248 248 250 250 250 251 250 249 249 248 249 251 250 249 248 247 246 244 243 243 244 244 245 247 248 249 249 251 252 252 254 255 256 257 258 259 261 262 263 264 265 267 268 269 270 271 272 273 274 275 276 277 278 280 281 281 282 283 284 284 284 285 286 287 287 288 289 290 291 291 292 292 292
243 245 246 248 249 250 251 252 252 252 250 249 250 249 249 251 252 253 254 252 250 250 250 251 252 251 249 249 248 247 245 244 243 243 244 246 248 249 250 252 253 254 255 256 257 258 259 260 261 263 264 264 265 266 267 268 270 271 272 274 274 275 276 277 278 279 280 281 281 282 282 283 283 284 285 286 286 287 288 289 290 290 290 290 290 291
242 244 245 248 250 251 253 254 255 253 249 248 250 252 254 255 253 254 254 251 247 249 251 252 252 251 249 248 247 246 247 246 245 245 246 248 249 250 251 252 254 255 256 257 258 259 260 262 263 264 265 266 267 267 268 269 270 272 273 274 275 276 277 278 279 279 280 280 281 281 282 283 283 284 285 285 286 287 288 289 289 289 289 289 290 290
241 242 244 247 249 250 252 253 254 253 250 247 248 250 254 256 255 255 256 252 246 247 249 250 252 251 250 248 246 246 246 247 249 249 248 249 250 250 251 253 254 256 257 258 259 260 262 263 264 266 267 267 268 269 270 271 272 273 274 275 276 277 277 278 278 279 279 280 280 281 282 283 283 284 285 286 286 287 287 288 287 287 288 288 289 291
241 242 244 246 247 249 251 253 253 253 251 249 248 247 249 253 253 252 253 251 249 249 249 249 251 250 249 248 248 247 248 250 252 252 250 250 251 252 252 253 254 256 258 259 261 262 264 265 266 266 267 268 269 270 271 272 273 274 274 275 275 276 276 277 277 278 279 280 281 281 282 283 284 284 285 286 286 286 286 286 286 287 288 289 291 292
244 244 246 247 249 250 252 254 255 255 253 252 252 250 250 251 251 251 254 255 255 254 252 251 251 250 249 249 249 249 250 251 252 251 251 251 252 253 253 254 255 256 258 260 261 263 264 265 266 267 267 269 270 271 272 273 273 274 274 275 275 275 276 277 277 278 279 280 281 281 282 283 284 285 285 285 285 285 285 285 286 288 289 291 293 294
244 245 246 247 248 249 251 253 253 255 255 252 252 252 250 249 249 252 256 258 258 258 255 251 251 251 250 250 250 250 250 250 250 251 251 252 253 254 255 256 256 257 258 259 260 262 263 265 266 267 268 269 270 271 272 272 273 273 274 274 275 276 276 277 278 279 280 280 282 283 284 284 284 284 284 284 284 284 285 287 288 290 292 293 294 295
245 246 247 248 248 250 251 250 252 256 258 254 251 252 254 254 255 256 257 258 258 259 257 254 253 251 250 251 250 251 251 251 251 251 252 253 254 255 256 257 258 258 259 259 260 261 263 265 266 267 269 270 270 271 271 271 272 272 273 274 275 276 277 277 278 279 281 282 283 283 284 283 283 283 283 284 285 286 287 289 290 292 293 294 295 296
244 245 247 248 248 249 249 250 254 259 261 259 257 258 260 262 262 258 255 255 254 254 254 254 254 252 251 251 251 251 251 252 252 252 252 253 254 255 256 257 258 259 260 260 261 262 263 264 265 266 267 268 269 269 270 270 271 272 273 274 275 276 277 278 280 281 282 283 283 283 282 282 282 283 284 285 287 288 289 290 292 293 294 294 295 296
244 245 247 249 250 251 252 254 256 258 258 257 257 256 256 258 258 255 253 251 250 249 248 249 250 250 250 249 249 250 250 251 251 251 252 253 253 254 255 256 257 258 260 261 261 262 262 263 264 264 265 266 266 267 268 269 270 271 272 273 275 276 278 279 280 281 281 281 281 281 281 282 283 284 285 287 288 289 290 291 292 293 294 294 295 295
245 247 248 249 250 252 252 252 253 253 254 255 255 255 254 255 256 255 254 253 251 250 248 247 248 249 250 250 250 249 250 251 251 252 253 254 255 255 256 257 258 259 260 260 261 261 262 262 262 263 264 264 265 266 267 268 269 271 272 273 275 276 277 278 279 279 279 280 280 281 282 283 284 285 286 287 288 289 290 291 292 293 293 294 294 295
244 245 247 247 248 249 250 251 252 253 254 255 256 258 258 258 257 257 257 256 254 252 251 249 249 250 250 251 251 251 251 252 252 253 253 254 255 256 257 258 258 259 260 260 261 261 262 262 263 263 264 264 265 266 268 269 270 271 273 274 274 275 276 276 277 277 278 279 280 281 282 283 284 285 286 287 289 290 291 291 292 292 293 294 294 294
244 244 246 247 247 248 250 251 252 253 254 255 255 256 257 258 257 257 257 257 256 255 253 252 251 250 251 251 252 252 252 251 252 252 253 253 254 255 256 257 258 259 259 260 261 262 263 263 264 265 265 266 267 268 269 270 271 272 272 273 273 273 274 275 277 278 279 280 281 282 283 283 284 286 287 288 289 290 290 291 291 292 293 293 294 294
245 245 245 246 246 247 248 248 249 251 252 253 254 255 256 257 258 258 258 259 259 258 256 255 253 252 251 252 252 253 253 253 253 253 253 254 254 254 255 256 257 258 259 260 261 262 263 264 265 266 267 267 268 269 269 270 271 271 272 272 273 274 275 277 278 279 280 281 282 282 283 284 286 287 288 289 289 290 290 291 291 292 293 293 293 294
246 246 247 248 248 248 248 249 251 252 252 253 254 255 256 257 259 259 259 259 259 258 258 257 255 254 253 253 253 254 255 256 256 255 255 255 256 256 256 256 257 258 259 260 261 263 264 265 266 266 267 268 269 270 271 271 272 273 273 274 275 276 278 279 280 281 281 282 283 284 285 286 287 288 289 289 289 290 290 291 291 292 293 293 294 295
248 248 249 251 252 251 250 251 251 251 251 251 251 252 254 255 256 256 257 258 258 258 258 258 257 256 256 255 255 255 256 256 257 257 257 257 258 258 258 258 258 259 260 261 262 262 263 264 265 266 268 269 271 273 274 275 275 276 276 277 278 279 280 281 281 282 283 284 285 286 287 287 288 288 289 289 289 290 290 291 291 292 293 294 295 296
Height
5776 5778 5782 5786 5790 5793 5795 5798 5802 5804 5806 5809 5812 5815 5819 5823 5826 5829 5832 5835 5839 5842 5846 5849 5852 5854 5856 5858 5860 5861 5862 5864 5867 5870 5872 5874 5875 5877 5878 5879 5880 5882 5882 5883 5885 5886 5886 5887 5888 5889 5890 5891 5892 5892 5893 5893 5894 5894 5895 5895 5896 5896 5897 5897 5897 5897 5897 5897 5897 5897 5897 5897 5897 5897 5897 5897 5896 5896 5895 5894 5894 5893 5893 5892 5890 5889
5773 5777 5781 5784 5786 5788 5790 5793 5796 5799 5802 5806 5808 5810 5815 5819 5822 5826 5830 5834 5837 5840 5844 5846 5848 5851 5852 5854 5856 5856 5858 5862 5865 5867 5869 5871 5872 5874 5875 5877 5878 5879 5880 5881 5883 5884 5885 5885 5886 5887 5888 5889 5890 5890 5890 5891 5891 5892 5893 5893 5893 5894 5894 5894 5895 5895 5895 5895 5895 5896 5896 5895 5895 5895 5894 5894 5893 5893 5893 5892 5891 5891 5890 5889 5888 5887
5771 5775 5779 5780 5781 5782 5784 5787 5790 5793 5797 5801 5803 5806 5811 5814 5817 5822 5827 5830 5833 5836 5839 5841 5844 5846 5848 5850 5851 5853 5856 5861 5863 5864 5866 5867 5869 5871 5873 5874 5874 5876 5877 5879 5880 5882 5883 5883 5884 5885 5886 5887 5887 5888 5888 5888 5889 5890 5891 5891 5891 5891 5891 5892 5892 5892 5893 5893 5893 5893 5893 5894 5893 5893 5891 5890 5890 5890 5890 5889 5889 5888 5887 5886 5885 5884
5769 5772 5775 5775 5775 5777 5780 5782 5785 5788 5792 5796 5799 5803 5808 5811 5813 5819 5824 5827 5829 5832 5834 5837 5839 5842 5844 5845 5847 5850 5855 5858 5860 5861 5862 5864 5866 5868 5870 5870 5871 5873 5875 5876 5877 5879 5880 5881 5882 5883 5883 5884 5884 5885 5886 5886 5887 5887 5888 5888 5888 5888 5889 5889 5890 5890 5890 5890 5890 5890 5891 5891 5891 5890 5889 5888 5888 5887 5887 5886 5886 5885 5884 5883 5882 5881
5765 5768 5770 5771 5772 5774 5776 5779 5782 5785 5789 5793 5796 5800 5805 5807 5810 5816 5821 5823 5826 5828 5831 5833 5835 5837 5840 5842 5844 5849 5853 5855 5856 5858 5859 5861 5864 5865 5866 5868 5869 5871 5873 5873 5875 5876 5877 5878 5879 5880 5881 5881 5882 5883 5883 5884 5884 5885 5885 5886 5886 5886 5886 5887 5887 5887 5888 5888 5888 5888 5888 5888 5888 5887 5886 5885 5885 5885 5884 5883 5883 5882 5881 5880 5879 5878
5761 5763 5765 5767 5768 5771 5774 5776 5779 5782 5785 5789 5793 5797 5800 5803 5807 5813 5817 5820 5822 5824 5828 5830 5829 5833 5838 5839 5843 5847 5849 5851 5853 5854 5857 5859 5860 5862 5864 5866 5867 5868 5870 5871 5872 5873 5875 5876 5876 5877 5878 5879 5879 5880 5880 5881 5881 5882 5882 5883 5883 5884 5884 5884 5884 5885 5885 5886 5886 5885 5885 5885 5885 5884 5883 5883 5882 5882 5881 5880 5879 5879 5878 5877 5875 5874
5757 5759 5762 5763 5765 5768 5771 5773 5776 5779 5782 5785 5790 5793 5796 5800 5805 5810 5814 5817 5819 5822 5825 5826 5826 5830 5836 5837 5841 5844 5844 5847 5850 5851 5854 5856 5857 5859 5862 5863 5864 5865 5867 5868 5869 5871 5872 5873 5874 5875 5875 5876 5876 5876 5877 5878 5878 5879 5879 5880 5880 5881 5881 5881 5881 5882 5882 5883 5883 5882 5882 5882 5881 5881 5880 5880 5879 5879 5878 5877 5876 5875 5874 5873 5872 5871
5754 5756 5759 5760 5761 5765 5768 5771 5774 5776 5778 5782 5786 5789 5792 5798 5803 5806 5810 5813 5815 5818 5820 5822 5823 5825 5831 5835 5837 5839 5840 5843 5846 5848 5851 5853 5854 5857 5859 5860 5861 5862 5863 5864 5866 5867 5869 5870 5871 5871 5872 5873 5873 5873 5874 5875 5875 5876 5876 5876 5877 5878 5878 5878 5878 5879 5879 5879 5879 5879 5879 5879 5878 5878 5877 5877 5876 5875 5874 5873 5872 5871 5870 5869 5868 5867
5750 5753 5755 5756 5758 5762 5766 5769 5770 5772 5775 5779 5782 5784 5789 5795 5798 5802 5805 5808 5810 5812 5814 5818 5819 5819 5825 5832 5833 5834 5837 5839 5843 5846 5849 5851 5852 5854 5856 5857 5859 5859 5860 5861 5862 5864 5865 5866 5867 5868 5869 5870 5870 5871 5871 5871 5872 5872 5873 5873 5874 5874 5875 5875 5875 5875 5875 5876 5876 5876 5875 5875 5875 5874 5874 5873 5872 5872 5871 5870 5868 5867 5866 5865 5864 5863
5747 5750 5752 5754 5756 5759 5763 5765 5766 5769 5772 5776 5778 5781 5786 5790 5794 5797 5800 5803 5805 5806 5809 5814 5816 5815 5820 5828 5830 5829 5833 5837 5841 5845 5846 5847 5849 5850 5852 5854 5855 5856 5857 5858 5859 5860 5861 5862 5864 5864 5865 5866 5867 5867 5868 5868 5869 5869 5869 5869 5870 5870 5871 5871 5872 5872 5872 5872 5872 5872 5871 5871 5871 5871 5870 5869 5868 5867 5866 5865 5864 5863 5862 5861 5860 5858
5744 5747 5749 5751 5754 5756 5759 5761 5763 5766 5768 5772 5774 5777 5781 5785 5789 5792 5795 5799 5799 5801 5806 5811 5813 5812 5815 5822 5826 5826 5830 5835 5839 5840 5841 5843 5846 5848 5850 5851 5851 5853 5854 5855 5855 5856 5857 5859 5860 5861 5862 5863 5863 5864 5864 5865 5865 5865 5866 5866 5866 5866 5867 5868 5868 5868 5868 5868 5868 5867 5867 5867 5867 5866 5865 5864 5864 5863 5862 5860 5860 5859 5858 5857 5855 5854
5741 5743 5745 5748 5750 5752 5755 5758 5760 5762 5765 5768 5770 5773 5778 5782 5785 5787 5790 5793 5794 5797 5804 5807 5808 5808 5808 5816 5823 5824 5827 5832 5834 5836 5838 5840 5843 5845 5846 5847 5848 5849 5849 5850 5851 5853 5854 5855 5856 5857 5858 5859 5859 5860 5860 5861 5861 5862 5862 5862 5862 5863 5863 5864 5864 5864 5864 5864 5864 5863 5863 5863 5862 5862 5861 5860 5859 5858 5857 5856 5855 5854 5853 5852 5851 5850
5737 5739 5742 5745 5747 5749 5752 5754 5756 5759 5762 5764 5767 5770 5774 5777 5779 5782 5784 5787 5789 5794 5800 5802 5803 5802 5803 5812 5820 5821 5824 5829 5831 5834 5836 5837 5839 5841 5842 5843 5844 5845 5845 5846 5847 5849 5850 5851 5852 5854 5855 5855 5856 5856 5856 5857 5857 5858 5858 5858 5859 5859 5859 5860 5860 5860 5860 5860 5859 5859 5859 5858 5858 5857 5856 5856 5855 5854 5853 5852 5851 5850 5849 5848 5846 5845
5733 5736 5739 5741 5743 5746 5748 5750 5753 5756 5759 5761 5764 5767 5769 5771 5773 5776 5779 5782 5786 5790 5794 5797 5798 5797 5800 5807 5815 5819 5822 5826 5828 5831 5833 5834 5836 5837 5838 5839 5840 5841 5842 5843 5844 5845 5846 5847 5848 5850 5851 5851 5852 5852 5853 5853 5853 5854 5854 5855 5855 5855 5856 5856 5856 5856 5856 5856 5855 5855 5854 5854 5853 5852 5852 5851 5851 5850 5849 5848 5847 5845 5844 5843 5841 5840
5730 5734 5737 5738 5741 5743 5745 5747 5749 5753 5755 5758 5761 5763 5765 5767 5770 5773 5777 5780 5784 5788 5790 5792 5792 5794 5798 5804 5811 5816 5818 5822 5825 5828 5830 5831 5832 5833 5834 5835 5836 5838 5838 5840 5840 5841 5842 5843 5844 5845 5846 5847 5848 5848 5849 5849 5850 5850 5851 5851 5852 5852 5852 5852 5852 5852 5852 5852 5851 5851 5850 5849 5849 5848 5847 5847 5846 5845 5844 5843 5842 5840 5839 5838 5836 5835
5726 5730 5733 5735 5738 5741 5742 5744 5747 5749 5751 5754 5756 5758 5761 5764 5768 5771 5774 5778 5782 5784 5785 5787 5788 5792 5797 5801 5808 5813 5815 5818 5822 5824 5826 5827 5828 5830 5831 5831 5832 5834 5835 5836 5837 5838 5839 5839 5840 5841 5842 5843 5844 5844 5845 5845 5846 5846 5847 5848 5848 5848 5848 5848 5848 5848 5848 5847 5847 5846 5846 5845 5845 5844 5843 5842 5841 5840 5839 5838 5837 5835 5834 5833 5831 5830
5724 5726 5729 5731 5733 5736 5738 5741 5743 5745 5748 5750 5752 5754 5759 5762 5764 5767 5770 5774 5776 5777 5779 5782 5785 5790 5794 5797 5803 5808 5811 5814 5817 5820 5822 5823 5825 5826 5827 5828 5829 5830 5831 5832 5833 5834 5835 5835 5836 5837 5838 5839 5840 5840 5840 5841 5841 5842 5843 5844 5844 5844 5844 5844 5844 5844 5843 5843 5842 5842 5841 5841 5840 5839 5838 5837 5836 5835 5834 5833 5832 5830 5829 5828 5826 5825
5721 5723 5726 5729 5730 5732 5735 5737 5739 5742 5744 5746 5748 5753 5757 5758 5760 5764 5767 5769 5771 5772 5775 5778 5782 5787 5790 5792 5798 5803 5807 5810 5812 5815 5817 5819 5821 5822 5823 5824 5825 5826 5827 5828 5829 5830 5830 5831 5832 5833 5834 5835 5835 5836 5836 5837 5837 5838 5839 5839 5840 5840 5840 5840 5839 5839 5838 5838 5838 5837 5837 5836 5835 5834 5833 5833 5832 5831 5829 5828 5827 5826 5824 5823 5821 5820
5717 5719 5721 5724 5726 5729 5731 5733 5735 5738 5740 5742 5745 5749 5752 5754 5757 5761 5762 5764 5767 5769 5771 5775 5778 5782 5785 5789 5795 5800 5803 5806 5808 5810 5813 5815 5817 5817 5819 5820 5821 5822 5822 5823 5824 5825 5826 5827 5828 5829 5830 5831 5831 5831 5832 5832 5833 5834 5835 5835 5835 5835 5835 5835 5835 5834 5834 5833 5833 5832 5832 5831 5830 5829 5828 5827 5827 5826 5824 5823 5822 5821 5819 5817 5816 5814
5712 5715 5716 5720 5723 5724 5726 5728 5731 5735 5737 5739 5742 5745 5747 5750 5754 5757 5759 5761 5764 5766 5768 5771 5773 5777 5782 5788 5792 5796 5799 5802 5805 5807 5809 5811 5812 5813 5814 5816 5817 5817 5818 5819 5820 5821 5822 5823 5824 5825 5825 5826 5827 5827 5828 5828 5829 5830 5830 5831 5831 5831 5830 5830 5829 5829 5829 5828 5828 5827 5827 5826 5825 5824 5823 5822 5821 5820 5819 5818 5817 5815 5813 5812 5810 5809
5708 5711 5713 5716 5718 5720 5721 5724 5728 5731 5733 5736 5739 5741 5743 5746 5749 5752 5755 5757 5759 5761 5764 5766 5768 5773 5780 5785 5788 5791 5795 5798 5801 5803 5804 5806 5807 5808 5809 5811 5812 5813 5814 5814 5815 5816 5817 5818 5819 5820 5821 5822 5822 5823 5823 5824 5825 5825 5826 5826 5826 5825 5825 5824 5824 5824 5823 5823 5822 5822 5821 5821 5820 5819 5818 5817 5816 5815 5814 5813 5811 5809 5808 5807 5805 5804
5704 5707 5709 5711 5714 5717 5719 5722 5725 5728 5731 5734 5736 5738 5741 5744 5746 5748 5750 5753 5755 5757 5760 5761 5764 5769 5776 5781 5785 5788 5791 5794 5796 5797 5799 5801 5802 5804 5805 5806 5807 5808 5809 5810 5811 5812 5813 5814 5815 5816 5816 5817 5818 5818 5819 5820 5820 5821 5821 5821 5820 5820 5819 5819 5819 5819 5818 5818 5817 5817 5816 5815 5815 5814 5813 5812 5811 5810 5808 5807 5805 5804 5802 5801 5800 5798
5702 5704 5706 5708 5711 5714 5717 5719 5721 5724 5727 5730 5732 5735 5738 5740 5742 5744 5747 5750 5753 5753 5755 5757 5759 5764 5772 5777 5781 5784 5786 5789 5790 5792 5794 5796 5798 5799 5800 5801 5802 5802 5804 5805 5806 5808 5808 5809 5810 5811 5811 5812 5813 5814 5815 5815 5816 5816 5816 5815 5815 5814 5814 5814 5814 5814 5814 5813 5813 5812 5811 5810 5810 5809 5808 5807 5806 5804 5803 5801 5800 5798 5797 5795 5794 5792
5699 5701 5702 5705 5708 5711 5713 5716 5718 5720 5723 5725 5728 5732 5734 5735 5738 5741 5743 5746 5747 5748 5751 5753 5753 5760 5769 5773 5776 5779 5781 5784 5785 5787 5789 5791 5793 5794 5795 5796 5797 5798 5799 5800 5801 5802 5803 5804 5805 5806 5806 5808 5809 5809 5810 5811 5811 5811 5810 5810 5810 5810 5810 5810 5809 5809 5809 5808 5808 5807 5806 5805 5805 5804 5803 5801 5800 5799 5797 5795 5794 5792 5791 5790 5788 5786
5695 5696 5698 5701 5703 5705 5708 5711 5713 5715 5717 5720 5723 5727 5729 5732 5735 5736 5738 5740 5741 5743 5747 5747 5747 5757 5765 5768 5770 5774 5776 5778 5781 5782 5784 5786 5788 5789 5790 5791 5793 5794 5795 5795 5796 5796 5797 5798 5799 5801 5802 5803 5804 5805 5805 5805 5805 5805 5805 5805 5805 5805 5805 5805 5804 5804 5804 5803 5802 5802 5801 5800 5799 5798 5797 5796 5794 5793 5791 5790 5788 5787 5785 5784 5782 5780
5691 5692 5694 5697 5698 5700 5704 5707 5710 5713 5714 5716 5719 5723 5726 5729 5730 5732 5734 5734 5735 5740 5743 5742 5746 5755 5762 5764 5766 5769 5771 5774 5776 5778 5780 5781 5782 5784 5785 5786 5788 5789 5789 5790 5790 5791 5791 5793 5794 5796 5797 5798 5799 5799 5799 5799 5799 5799 5799 5799 5799 5799 5799 5799 5799 5798 5798 5798 5797 5796 5795 5794 5794 5792 5791 5790 5789 5787 5785 5784 5782 5780 5779 5777 5775 5773
5686 5687 5690 5693 5695 5698 5703 5706 5710 5713 5713 5715 5719 5722 5724 5726 5728 5729 5729 5729 5733 5738 5738 5741 5747 5753 5758 5762 5763 5765 5768 5770 5772 5774 5776 5777 5777 5778 5780 5781 5782 5783 5784 5784 5785 5785 5787 5788 5790 5791 5792 5793 5793 5793 5793 5793 5793 5793 5793 5794 5794 5794 5794 5794 5793 5793 5792 5792 5791 5791 5790 5789 5788 5786 5785 5784 5782 5781 5779 5777 5775 5774 5772 5770 5768 5765
5681 5682 5686 5689 5692 5696 5699 5702 5705 5708 5710 5712 5716 5718 5720 5722 5724 5724 5724 5728 5734 5734 5733 5741 5748 5749 5754 5760 5760 5761 5764 5765 5767 5770 5771 5771 5772 5773 5774 5775 5777 5778 5779 5779 5780 5781 5783 5784 5785 5786 5786 5787 5787 5787 5787 5787 5787 5788 5788 5788 5788 5788 5788 5788 5787 5787 5787 5786 5785 5784 5784 5782 5781 5780 5779 5777 5776 5774 5772 5770 5768 5767 5764 5762 5761 5758
5677 5679 5683 5687 5690 5692 5694 5696 5698 5701 5704 5706 5709 5711 5714 5716 5717 5718 5721 5726 5729 5726 5729 5740 5745 5744 5750 5755 5756 5757 5759 5759 5761 5764 5764 5765 5766 5766 5768 5769 5771 5772 5773 5774 5775 5777 5778 5779 5780 5780 5781 5781 5781 5781 5781 5781 5782 5782 5782 5782 5782 5782 5782 5782 5781 5781 5781 5780 5779 5778 5777 5776 5775 5774 5772 5770 5769 5767 5765 5763 5761 5759 5757 5755 5753 5751
5673 5677 5679 5682 5686 5688 5689 5691 5693 5696 5699 5701 5703 5706 5708 5709 5711 5713 5716 5721 5723 5722 5726 5734 5736 5736 5742 5747 5750 5751 5750 5751 5754 5755 5757 5759 5760 5761 5762 5764 5766 5767 5768 5769 5770 5772 5773 5774 5774 5774 5775 5775 5775 5776 5776 5776 5776 5776 5776 5776 5776 5776 5776 5775 5775 5775 5775 5774 5772 5771 5771 5769 5768 5767 5765 5763 5762 5760 5758 5756 5754 5752 5750 5748 5745 5743
5671 5673 5675 5678 5681 5682 5684 5687 5688 5690 5693 5695 5698 5700 5703 5704 5706 5709 5712 5715 5716 5717 5722 5726 5725 5729 5737 5742 5744 5746 5745 5746 5748 5749 5751 5754 5756 5756 5758 5759 5760 5760 5762 5764 5765 5766 5767 5767 5768 5768 5769 5769 5770 5770 5770 5770 5770 5770 5770 5770 5770 5769 5769 5769 5768 5768 5768 5767 5766 5765 5764 5762 5761 5760 5758 5756 5754 5752 5750 5748 5746 5744 5742 5739 5737 5735
5668 5669 5672 5675 5676 5677 5681 5683 5684 5686 5688 5688 5691 5696 5699 5700 5703 5705 5708 5710 5711 5713 5718 5719 5718 5726 5735 5738 5738 5740 5740 5740 5742 5744 5746 5749 5751 5752 5752 5752 5753 5754 5756 5757 5759 5760 5760 5760 5761 5762 5763 5764 5764 5764 5764 5764 5764 5764 5764 5764 5763 5763 5762 5762 5762 5762 5761 5760 5759 5758 5757 5755 5754 5752 5750 5748 5746 5744 5742 5740 5738 5736 5734 5731 5729 5727
5664 5666 5669 5671 5672 5674 5677 5678 5680 5681 5679 5680 5688 5695 5697 5698 5699 5701 5702 5705 5707 5709 5712 5713 5717 5726 5731 5731 5733 5734 5734 5735 5738 5740 5740 5742 5744 5745 5744 5745 5745 5747 5749 5750 5752 5753 5753 5754 5755 5756 5757 5758 5758 5758 5758 5758 5758 5758 5758 5757 5757 5756 5756 5755 5755 5755 5754 5753 5752 5750 5749 5748 5746 5744 5742 5740 5738 5736 5734 5732 5730 5728 5726 5724 5721 5719
5659 5662 5663 5665 5667 5669 5671 5674 5676 5672 5671 5678 5688 5693 5693 5694 5695 5695 5697 5701 5704 5705 5707 5710 5716 5721 5722 5724 5728 5729 5728 5730 5733 5733 5733 5735 5737 5737 5737 5738 5739 5740 5742 5744 5746 5746 5747 5748 5749 5750 5751 5751 5751 5751 5751 5752 5752 5751 5751 5751 5750 5750 5749 5749 5748 5748 5747 5746 5744 5743 5741 5740 5738 5736 5734 5732 5730 5728 5726 5724 5722 5720 5718 5716 5713 5711
5656 5658 5658 5660 5662 5663 5665 5668 5666 5663 5669 5679 5684 5686 5688 5689 5690 5691 5693 5696 5698 5699 5702 5705 5709 5713 5715 5718 5722 5723 5723 5725 5725 5725 5727 5729 5730 5731 5731 5732 5733 5734 5736 5738 5740 5740 5740 5742 5742 5743 5744 5744 5744 5744 5744 5744 5744 5744 5744 5744 5743 5743 5743 5742 5741 5740 5739 5738 5736 5735 5733 5732 5730 5728 5726 5724 5722 5720 5718 5717 5715 5713 5710 5708 5706 5703
5653 5654 5654 5656 5657 5658 5659 5659 5658 5662 5671 5675 5675 5679 5683 5683 5684 5686 5686 5689 5693 5694 5695 5699 5703 5707 5709 5712 5715 5716 5717 5717 5716 5718 5721 5723 5724 5724 5725 5726 5727 5728 5730 5731 5733 5734 5734 5735 5736 5736 5737 5737 5737 5737 5737 5737 5737 5737 5737 5736 5736 5736 5735 5734 5733 5732 5731 5729 5728 5726 5725 5723 5722 5720 5718 5716 5714 5713 5711 5709 5707 5705 5703 5701 5698 5696
5649 5649 5651 5651 5652 5654 5654 5654 5656 5661 5665 5668 5672 5676 5678 5678 5681 5681 5680 5683 5688 5689 5691 5695 5699 5702 5703 5706 5709 5709 5708 5708 5708 5712 5716 5717 5717 5718 5718 5720 5721 5721 5723 5725 5726 5727 5728 5728 5729 5729 5730 5730 5730 5730 5730 5730 5730 5730 5729 5729 5729 5728 5727 5726 5725 5724 5722 5721 5720 5718 5717 5715 5714 5712 5710 5709 5707 5705 5703 5702 5700 5698 5696 5693 5691 5688
5643 5644 5646 5646 5647 5649 5649 5650 5652 5653 5659 5667 5672 5673 5674 5674 5676 5675 5672 5675 5682 5686 5688 5690 5694 5696 5698 5700 5701 5700 5699 5699 5701 5708 5713 5711 5710 5711 5712 5713 5714 5715 5717 5718 5718 5720 5721 5721 5722 5722 5722 5723 5723 5723 5723 5723 5723 5723 5722 5721 5721 5720 5719 5718 5717 5715 5714 5713 5711 5710 5708 5707 5706 5704 5702 5701 5699 5698 5696 5694 5692 5690 5688 5685 5683 5681
5637 5638 5640 5640 5641 5643 5644 5645 5645 5648 5657 5665 5667 5669 5669 5667 5669 5669 5664 5668 5678 5683 5683 5685 5688 5690 5691 5692 5692 5692 5691 5690 5696 5705 5708 5704 5703 5705 5705 5707 5708 5709 5709 5710 5711 5712 5713 5714 5714 5714 5715 5715 5715 5715 5715 5715 5715 5715 5714 5714 5713 5712 5711 5710 5709 5707 5706 5705 5703 5702 5700 5699 5698 5696 5695 5693 5692 5690 5688 5686 5684 5682 5680 5678 5676 5673
5630 5632 5633 5634 5636 5638 5639 5639 5640 5645 5654 5658 5659 5663 5663 5661 5662 5660 5658 5666 5674 5675 5678 5682 5682 5682 5684 5685 5685 5685 5685 5687 5693 5700 5700 5696 5696 5698 5699 5700 5701 5701 5702 5703 5704 5705 5706 5706 5707 5707 5707 5707 5707 5707 5707 5706 5707 5706 5706 5705 5705 5704 5703 5702 5700 5699 5698 5697 5695 5694 5692 5691 5690 5688 5687 5685 5684 5682 5680 5678 5676 5674 5673 5670 5668 5665
5624 5626 5627 5629 5633 5633 5634 5635 5635 5641 5649 5652 5652 5656 5656 5655 5652 5651 5656 5666 5666 5666 5675 5678 5673 5673 5676 5676 5677 5679 5681 5684 5687 5689 5689 5688 5689 5690 5691 5693 5694 5695 5696 5697 5697 5698 5698 5698 5699 5699 5699 5699 5699 5699 5699 5698 5698 5697 5697 5697 5696 5695 5694 5693 5692 5691 5690 5689 5687 5686 5684 5683 5682 5680 5679 5677 5675 5673 5671 5670 5668 5666 5664 5662 5659 5656
5618 5620 5621 5624 5627 5627 5629 5630 5631 5636 5644 5645 5645 5646 5645 5644 5644 5648 5657 5660 5657 5660 5667 5667 5665 5667 5668 5667 5670 5672 5674 5676 5678 5679 5680 5680 5681 5682 5683 5685 5687 5688 5689 5690 5690 5691 5690 5690 5690 5690 5690 5691 5691 5690 5690 5690 5689 5689 5688 5688 5687 5686 5685 5684 5683 5682 5681 5680 5679 5678 5676 5675 5673 5672 5670 5668 5667 5665 5663 5661 5660 5657 5655 5652 5649 5646
5613 5614 5615 5618 5621 5622 5622 5622 5626 5633 5638 5638 5639 5639 5636 5636 5643 5649 5652 5652 5651 5655 5657 5657 5659 5661 5659 5660 5663 5663 5666 5669 5670 5671 5672 5672 5673 5675 5676 5677 5678 5679 5681 5682 5682 5683 5683 5682 5682 5682 5682 5682 5682 5682 5682 5681 5680 5680 5680 5679 5678 5678 5677 5676 5675 5674 5673 5672 5671 5669 5668 5666 5664 5663 5661 5660 5658 5656 5654 5652 5650 5648 5645 5642 5639 5637
5605 5607 5608 5611 5614 5613 5612 5615 5622 5629 5631 5631 5634 5635 5632 5633 5638 5642 5642 5643 5646 5648 5649 5650 5652 5652 5652 5655 5655 5656 5659 5661 5661 5663 5664 5664 5665 5667 5667 5668 5669 5670 5671 5673 5673 5674 5675 5675 5675 5675 5675 5675 5674 5674 5673 5673 5672 5672 5671 5671 5670 5669 5669 5668 5667 5666 5665 5664 5663 5661 5659 5658 5656 5654 5653 5651 5649 5647 5645 5643 5641 5638 5636 5633 5630 5627
5598 5602 5604 5606 5607 5606 5607 5613 5620 5623 5622 5623 5625 5626 5626 5626 5628 5630 5633 5635 5637 5639 5642 5643 5643 5644 5646 5647 5648 5651 5653 5652 5654 5656 5656 5656 5658 5658 5659 5661 5661 5662 5663 5664 5665 5666 5666 5667 5667 5667 5667 5667 5667 5666 5666 5665 5665 5665 5664 5663 5663 5662 5662 5661 5660 5659 5657 5656 5655 5653 5651 5650 5648 5646 5644 5642 5640 5638 5636 5634 5631 5629 5626 5623 5621 5618
5594 5597 5598 5599 5600 5600 5602 5608 5613 5614 5614 5615 5614 5615 5618 5619 5619 5622 5625 5627 5629 5632 5635 5636 5636 5638 5638 5639 5642 5644 5645 5646 5648 5648 5649 5650 5651 5651 5653 5654 5654 5655 5656 5656 5657 5658 5658 5659 5659 5659 5660 5660 5659 5659 5658 5658 5658 5658 5657 5657 5656 5655 5655 5653 5652 5651 5650 5648 5647 5645 5643 5641 5639 5637 5635 5633 5631 5629 5626 5624 5622 5619 5616 5614 5611 5609
5588 5590 5590 5591 5592 5592 5595 5602 5606 5607 5608 5608 5607 5608 5610 5612 5613 5615 5616 5618 5622 5625 5627 5629 5631 5632 5632 5633 5636 5637 5639 5641 5642 5642 5643 5645 5644 5645 5646 5647 5647 5649 5649 5649 5650 5650 5650 5651 5651 5651 5652 5652 5651 5652 5651 5651 5651 5651 5650 5650 5649 5648 5647 5646 5645 5643 5642 5640 5639 5637 5635 5633 5631 5629 5627 5625 5622 5620 5617 5615 5612 5609 5607 5604 5602 5599
5582 5582 5582 5584 5586 5587 5591 5598 5601 5600 5600 5601 5601 5602 5602 5603 5605 5607 5607 5609 5613 5616 5618 5621 5623 5624 5626 5627 5628 5630 5632 5633 5634 5635 5637 5637 5638 5639 5640 5640 5641 5642 5642 5642 5642 5642 5643 5643 5643 5643 5644 5643 5644 5644 5644 5644 5644 5643 5643 5642 5641 5640 5639 5638 5637 5635 5634 5632 5630 5629 5627 5624 5622 5620 5618 5616 5613 5611 5608 5605 5603 5600 5598 5595 5592 5589
5574 5574 5576 5579 5579 5581 5586 5591 5592 5592 5592 5593 5595 5595 5595 5596 5597 5599 5600 5602 5604 5607 5609 5612 5615 5617 5618 5619 5620 5622 5623 5625 5627 5628 5629 5630 5631 5632 5632 5633 5634 5634 5634 5635 5635 5635 5635 5635 5635 5635 5635 5635 5635 5636 5636 5636 5636 5636 5635 5634 5633 5632 5631 5630 5628 5627 5625 5624 5622 5620 5618 5615 5613 5611 5609 5606 5604 5601 5598 5596 5593 5591 5588 5585 5582 5579
5566 5567 5571 5572 5571 5574 5581 5585 5585 5585 5585 5587 5589 5589 5589 5589 5590 5591 5593 5595 5596 5598 5600 5603 5605 5608 5610 5612 5614 5615 5615 5617 5618 5620 5621 5622 5623 5624 5625 5626 5626 5626 5627 5627 5627 5627 5627 5627 5627 5627 5627 5627 5627 5627 5627 5628 5628 5627 5627 5626 5625 5624 5622 5621 5620 5618 5616 5615 5613 5610 5608 5606 5604 5602 5599 5597 5594 5591 5589 5586 5583 5581 5578 5574 5572 5569
5560 5562 5565 5565 5565 5570 5576 5577 5577 5578 5579 5580 5582 5582 5581 5582 5583 5584 5585 5587 5588 5590 5592 5594 5596 5598 5601 5604 5606 5607 5608 5609 5610 5611 5613 5613 5614 5615 5616 5617 5618 5619 5619 5619 5620 5620 5620 5620 5620 5619 5619 5619 5619 5619 5619 5619 5619 5618 5618 5616 5616 5615 5613 5612 5611 5609 5607 5605 5603 5601 5599 5597 5594 5592 5589 5587 5584 5582 5579 5577 5574 5571 5567 5564 5561 5559